Regional Weather Roundup
Issued by NWS Kansas City/Pleasant Hill, MO

Home | Current Version | Previous Version | Text Only | Print | Product List | Glossary On
Versions: 1 2 3 4 5 6 7 8 9 10 11 12 13 14 15 16 17 18 19 20 21 22 23 24 25 26 27 28 29 30 31 32 33 34 35 36 37 38 39 40 41 42 43 44 45 46 47 48 49 50
000
ASUS43 KEAX 292104
RWREAX

WEATHER ROUNDUP FOR EASTERN KANSAS AND NORTHWEST MISSOURI
NATIONAL WEATHER SERVICE KANSAS CITY/PLEASANT HILL MO
400 PM CDT FRI MAY 29 2015

KSZ040-057-103>105-MOZ028-029-037-043-292200-
...KANSAS CITY METROPOLITAN AREA...

CITY           SKY/WX    TMP DP  RH WIND       PRES   REMARKS
K.C. INTL      CLOUDY    68  66  93 SW8       29.96F
K.C. DOWNTOWN  LGT RAIN  70  65  84 S12       29.95F
LEES SUMMIT    LGT RAIN  68  65  90 S8        29.99S
OLATHE - IXD   CLOUDY    68  66  94 S10       29.99F
OLATHE - OJC   LGT RAIN  69  67  93 S9        29.98F
LAWRENCE       CLOUDY    70  66  87 S8        29.97S

$$

MOZ001>008-011>017-020>025-030>033-038>040-044>046-053-054-292200-
...NORTHERN AND CENTRAL MISSOURI...

CITY           SKY/WX    TMP DP  RH WIND       PRES   REMARKS
ST. JOSEPH     CLOUDY    70  66  87 SW7       29.95F
MOSBY          DRIZZLE   68  66  94 SE6       29.96F
WARRENSBURG    LGT RAIN  70  64  83 SW6       29.99S
WHITEMAN AFB   LGT RAIN  72  66  83 W3        29.98S
CLINTON        DRIZZLE   72  70  94 S3        30.00S
SEDALIA        CLOUDY    74  65  73 S6        30.00F
WARSAW         FAIR      72  64  78 CALM      30.00F
CHILLICOTHE      N/A     72  67  84 VRB3      29.98F
KIRKSVILLE     CLOUDY    74  66  76 SW8       29.98F

$$

MOZ041-047>049-056>058-063>065-088>090-097-292200-
...EASTERN AND SOUTHERN MISSOURI...

CITY           SKY/WX    TMP DP  RH WIND       PRES   REMARKS
ST. LOUIS INTL PTSUNNY   83  65  54 SW13      29.98F
SPIRIT OF STL  PTSUNNY   82  70  66 W8        29.97F
COLUMBIA       CLOUDY    73  66  78 W6        30.01S
JEFFERSON CITY CLOUDY    75  63  66 VRB3      29.99F
MEXICO         CLOUDY    73  70  88 W5        30.00
ROLLA          PTSUNNY   74  66  76 CALM      30.00F
LEBANON        MOSUNNY   77  66  69 E5        30.00F
OSAGE BEACH    CLOUDY    75  63  64 E3        30.00F
SPRINGFIELD    RAIN      73  67  81 NE7       29.98F
BRANSON        PTSUNNY   73  70  88 CALM      29.98F
NEVADA         LGT RAIN  68  66  94 NW3       30.01S
JOPLIN         RAIN      68  67  96 NW12      29.99R FOG
WEST PLAINS    MOSUNNY   78  68  71 N7G16     29.99F

$$

IAZ060-094-KSZ022-034>040-054-083-096-NEZ052-066-093-292200-
...KANSAS...SOUTHEAST NEBRASKA AND IOWA...

CITY           SKY/WX    TMP DP  RH WIND       PRES   REMARKS
TOPEKA         CLOUDY    71  66  84 S8        29.96F
MANHATTAN      CLOUDY    77  67  71 SW7       29.94F
EMPORIA        CLOUDY    72  65  78 S10       29.96F
CHANUTE        LGT RAIN  69  67  93 SE10      29.96F
WICHITA        CLOUDY    78  62  57 SE7       29.95F
OMAHA          CLOUDY    78  60  53 S12       29.90F
LINCOLN        CLOUDY    79  60  52 W9        29.92F
FALLS CITY     CLOUDY    73  65  75 S10       29.94F
LAMONI         LGT RAIN  70  65  84 SW12      29.96S
DES MOINES     CLOUDY    72  63  73 SW15      29.91F

$$



USA.gov is the U.S. government's official web portal to all federal, state and local government web resources and services.